| time (UTC) | temp C | wind direction | speed KPH | gust KPH | rain 1hr cm | rain 24hr cm | rain mn cm | humidity % | barometer mb |
| 20260510154550 | 19 | 233 | 0.0 | 9.7 | 0.00 | 0.00 | 0.00 | 75 | 1025.7 |
| 20260510153042 | 18 | 84 | 0.0 | 9.7 | 0.00 | 0.00 | 0.00 | 78 | 1025.7 |
| 20260510151628 | 18 | 353 | 0.0 | 9.7 | 0.00 | 0.00 | 0.00 | 78 | 1025.7 |
| 20260510150022 | 17 | 254 | 0.0 | 3.2 | 0.00 | 0.00 | 0.00 | 83 | 1025.7 |
| 20260510144542 | 17 | 242 | 0.0 | 3.2 | 0.00 | 0.00 | 0.00 | 81 | 1025.7 |
| 20260510143018 | 16 | 198 | 0.0 | 1.6 | 0.00 | 0.00 | 0.00 | 84 | 1025.7 |
| 20260510141517 | 16 | 127 | 0.0 | 0.0 | 0.00 | 0.00 | 0.00 | 84 | 1025.7 |
| 20260510140012 | 15 | 127 | 0.0 | 1.6 | 0.00 | 0.00 | 0.00 | 87 | 1025.7 |
| 20260510134509 | 15 | 172 | 0.0 | 0.0 | 0.00 | 0.00 | 0.00 | 92 | 1025.7 |
| 20260510133005 | 13 | 163 | 0.0 | 1.6 | 0.00 | 0.00 | 0.00 | 91 | 1025.7 |
| 20260510131506 | 13 | 139 | 0.0 | 1.6 | 0.00 | 0.00 | 0.00 | 94 | 1025.7 |
| 20260510130059 | 12 | 179 | 0.0 | 0.0 | 0.00 | 0.00 | 0.00 | 94 | 1025.7 |
| 20260510124600 | 12 | 179 | 0.0 | 9.7 | 0.00 | 0.00 | 0.00 | 95 | 1025.7 |
| 20260510123057 | 12 | 296 | 0.0 | 0.0 | 0.00 | 0.00 | 0.00 | 95 | 1025.7 |
| 20260510121557 | 12 | 297 | 0.0 | 1.6 | 0.00 | 0.00 | 0.00 | 95 | 1025.7 |
| 20260510120050 | 11 | 298 | 0.0 | 0.0 | 0.00 | 0.20 | 0.00 | 95 | 1025.7 |
| 20260510114551 | 11 | 297 | 0.0 | 0.0 | 0.00 | 0.20 | 0.00 | 95 | 1025.7 |
| 20260510113047 | 11 | 297 | 0.0 | 1.6 | 0.00 | 0.20 | 0.00 | 95 | 1025.7 |
| 20260510111547 | 11 | 298 | 0.0 | 0.0 | 0.00 | 0.20 | 0.00 | 95 | 1025.7 |
| 20260510110040 | 10 | 298 | 0.0 | 0.0 | 0.00 | 0.36 | 0.00 | 95 | 1025.7 |
| 20260510104553 | 10 | 298 | 0.0 | 0.0 | 0.00 | 0.36 | 0.00 | 95 | 1025.7 |
| 20260510103042 | 10 | 298 | 0.0 | 0.0 | 0.00 | 0.36 | 0.00 | 95 | 1025.7 |
| 20260510101546 | 9 | 298 | 0.0 | 0.0 | 0.00 | 0.36 | 0.00 | 95 | 1025.7 |
| 20260510100036 | 9 | 298 | 0.0 | 0.0 | 0.00 | 1.17 | 0.00 | 95 | 1025.7 |
| 20260510094535 | 9 | 298 | 0.0 | 0.0 | 0.00 | 1.17 | 0.00 | 94 | 1025.7 |
| 20260510093034 | 9 | 298 | 0.0 | 0.0 | 0.00 | 1.17 | 0.00 | 94 | 1025.7 |
| 20260510091536 | 9 | 298 | 0.0 | 0.0 | 0.00 | 1.17 | 0.00 | 94 | 1025.7 |
| 20260510090035 | 9 | 298 | 0.0 | 0.0 | 0.00 | 1.17 | 0.00 | 94 | 1025.7 |
| 20260510084544 | 9 | 298 | 0.0 | 0.0 | 0.00 | 1.17 | 0.00 | 94 | 1025.7 |
| 20260510083028 | 10 | 298 | 0.0 | 0.0 | 0.00 | 1.17 | 0.00 | 94 | 1025.7 |
| 20260510081533 | 10 | 298 | 0.0 | 0.0 | 0.00 | 1.17 | 0.00 | 94 | 1025.7 |
| 20260510080025 | 10 | 298 | 0.0 | 0.0 | 0.00 | 1.17 | 0.00 | 94 | 1025.7 |
| 20260510074525 | 10 | 298 | 0.0 | 0.0 | 0.00 | 1.17 | 0.00 | 95 | 1025.7 |
| 20260510073038 | 10 | 298 | 0.0 | 0.0 | 0.00 | 1.17 | 0.00 | 95 | 1025.7 |
| 20260510071526 | 10 | 298 | 0.0 | 0.0 | 0.00 | 1.17 | 0.00 | 94 | 1025.7 |
| 20260510070025 | 10 | 298 | 0.0 | 0.0 | 0.00 | 1.17 | 0.00 | 94 | 1025.7 |
| 20260510064522 | 10 | 298 | 0.0 | 0.0 | 0.00 | 1.17 | 0.00 | 94 | 1025.7 |
| 20260510063023 | 10 | 298 | 0.0 | 0.0 | 0.00 | 1.17 | 0.00 | 94 | 1025.7 |
| 20260510061522 | 10 | 298 | 0.0 | 0.0 | 0.00 | 1.17 | 0.00 | 94 | 1025.7 |
| 20260510060033 | 10 | 298 | 0.0 | 0.0 | 0.00 | 1.17 | 0.00 | 94 | 1025.7 |
| 20260510054520 | 10 | 298 | 0.0 | 0.0 | 0.00 | 1.17 | 0.00 | 94 | 1025.7 |
| 20260510053019 | 10 | 298 | 0.0 | 0.0 | 0.00 | 1.17 | 0.00 | 94 | 1025.7 |
| 20260510051519 | 10 | 298 | 0.0 | 0.0 | 0.00 | 1.17 | 0.00 | 94 | 1025.7 |
| 20260510050018 | 10 | 298 | 0.0 | 0.0 | 0.00 | 1.17 | 0.00 | 94 | 1025.7 |
| 20260510044518 | 10 | 298 | 0.0 | 0.0 | 0.00 | 1.17 | 0.00 | 94 | 1025.7 |
| 20260510043018 | 10 | 297 | 0.0 | 0.0 | 0.00 | 1.17 | 0.00 | 94 | 1025.7 |
| 20260510041517 | 10 | 297 | 0.0 | 0.0 | 0.00 | 1.17 | 0.00 | 94 | 1025.7 |
| 20260510040016 | 10 | 297 | 0.0 | 0.0 | 0.00 | 1.17 | 1.17 | 94 | 1025.7 |
| 20260510034516 | 10 | 297 | 0.0 | 0.0 | 0.00 | 1.17 | 1.17 | 94 | 1025.7 |
| 20260510033016 | 10 | 297 | 0.0 | 0.0 | 0.00 | 1.17 | 1.17 | 94 | 1025.7 |
| 20260510031515 | 11 | 297 | 0.0 | 0.0 | 0.00 | 1.17 | 1.17 | 94 | 1025.7 |
| 20260510030012 | 10 | 297 | 0.0 | 0.0 | 0.00 | 1.17 | 1.17 | 95 | 1025.7 |
| 20260510024509 | 10 | 297 | 0.0 | 0.0 | 0.00 | 1.17 | 1.17 | 95 | 1025.7 |
| 20260510023008 | 10 | 297 | 0.0 | 0.0 | 0.00 | 1.17 | 1.17 | 95 | 1025.7 |
| 20260510021508 | 10 | 297 | 0.0 | 0.0 | 0.00 | 1.17 | 1.17 | 94 | 1025.7 |
| 20260510020008 | 10 | 298 | 0.0 | 0.0 | 0.00 | 1.17 | 1.17 | 94 | 1025.7 |
| 20260510014508 | 9 | 297 | 0.0 | 0.0 | 0.00 | 1.17 | 1.17 | 94 | 1025.7 |
| 20260510013007 | 9 | 297 | 0.0 | 0.0 | 0.00 | 1.17 | 1.17 | 94 | 1025.7 |
| 20260510011507 | 8 | 297 | 0.0 | 0.0 | 0.00 | 1.17 | 1.17 | 94 | 1025.7 |
| 20260510010005 | 8 | 297 | 0.0 | 0.0 | 0.00 | 1.17 | 1.17 | 94 | 1025.7 |
| 20260510004504 | 8 | 297 | 0.0 | 0.0 | 0.00 | 1.17 | 1.17 | 94 | 1025.7 |
| 20260510003005 | 8 | 297 | 0.0 | 0.0 | 0.00 | 1.17 | 1.17 | 94 | 1025.7 |
| 20260510001504 | 8 | 297 | 0.0 | 0.0 | 0.00 | 1.17 | 1.17 | 94 | 1025.7 |
| 20260510000004 | 8 | 297 | 0.0 | 0.0 | 0.00 | 1.17 | 1.17 | 93 | 1025.7 |
| 20260509234503 | 8 | 297 | 0.0 | 0.0 | 0.00 | 1.17 | 1.17 | 94 | 1025.7 |
| 20260509233003 | 8 | 297 | 0.0 | 0.0 | 0.00 | 1.17 | 1.17 | 93 | 1025.7 |
| 20260509231502 | 8 | 297 | 0.0 | 0.0 | 0.00 | 1.17 | 1.17 | 93 | 1025.7 |
| 20260509230002 | 8 | 297 | 0.0 | 0.0 | 0.00 | 1.17 | 1.17 | 93 | 1025.7 |
| 20260509224504 | 8 | 297 | 0.0 | 0.0 | 0.00 | 1.17 | 1.17 | 93 | 1025.7 |
| 20260509223002 | 8 | 297 | 0.0 | 0.0 | 0.00 | 1.17 | 1.17 | 93 | 1025.7 |
| 20260509221600 | 8 | 297 | 0.0 | 0.0 | 0.00 | 1.17 | 1.17 | 93 | 1025.7 |
| 20260509220100 | 8 | 297 | 0.0 | 0.0 | 0.00 | 1.17 | 1.17 | 93 | 1025.7 |
| 20260509214600 | 8 | 297 | 0.0 | 0.0 | 0.00 | 1.17 | 1.17 | 93 | 1025.7 |
| 20260509213059 | 8 | 297 | 0.0 | 1.6 | 0.00 | 1.17 | 1.17 | 93 | 1025.7 |
| 20260509211558 | 8 | 305 | 0.0 | 0.0 | 0.00 | 1.17 | 1.17 | 93 | 1025.7 |
| 20260509210107 | 8 | 305 | 0.0 | 0.0 | 0.00 | 1.17 | 1.17 | 93 | 1025.7 |
| 20260509204603 | 8 | 305 | 0.0 | 0.0 | 0.00 | 1.17 | 1.17 | 92 | 1025.7 |
| 20260509203056 | 9 | 305 | 0.0 | 0.0 | 0.00 | 1.17 | 1.17 | 92 | 1025.7 |
| 20260509201554 | 9 | 305 | 0.0 | 0.0 | 0.00 | 1.17 | 1.17 | 92 | 1025.7 |
| 20260509200107 | 9 | 305 | 0.0 | 0.0 | 0.00 | 1.17 | 1.17 | 92 | 1025.7 |
| 20260509194554 | 9 | 305 | 0.0 | 0.0 | 0.00 | 1.17 | 1.17 | 91 | 1025.7 |
| 20260509193054 | 9 | 256 | 0.0 | 0.0 | 0.00 | 1.17 | 1.17 | 92 | 1025.7 |
| 20260509191553 | 9 | 255 | 0.0 | 1.6 | 0.00 | 1.17 | 1.17 | 91 | 1025.7 |
| 20260509190057 | 9 | 326 | 0.0 | 8.0 | 0.00 | 1.17 | 1.17 | 91 | 1025.7 |
| 20260509184638 | 9 | 325 | 0.0 | 8.0 | 0.00 | 1.17 | 1.17 | 91 | 1025.7 |
| 20260509183056 | 9 | 325 | 0.0 | 8.0 | 0.00 | 1.17 | 1.17 | 90 | 1025.7 |
| 20260509181550 | 10 | 295 | 0.0 | 8.0 | 0.00 | 1.17 | 1.17 | 90 | 1025.7 |
| 20260509180049 | 10 | 266 | 0.0 | 0.0 | 0.00 | 1.17 | 1.17 | 91 | 1025.7 |
| 20260509174549 | 10 | 266 | 0.0 | 8.0 | 0.00 | 1.17 | 1.17 | 90 | 1025.7 |
| 20260509173049 | 10 | 148 | 0.0 | 0.0 | 0.00 | 1.17 | 1.17 | 90 | 1025.7 |
| 20260509171546 | 10 | 148 | 0.0 | 0.0 | 0.00 | 1.17 | 1.17 | 91 | 1025.7 |
| 20260509170046 | 10 | 88 | 0.0 | 0.0 | 0.00 | 1.17 | 1.17 | 91 | 1025.7 |
| 20260509164540 | 10 | 88 | 0.0 | 0.0 | 0.00 | 1.17 | 1.17 | 91 | 1025.7 |
| 20260509163045 | 10 | 88 | 0.0 | 0.0 | 0.00 | 1.17 | 1.17 | 91 | 1025.7 |
| 20260509161538 | 10 | 88 | 0.0 | 0.0 | 0.00 | 1.17 | 1.17 | 91 | 1025.7 |
| 20260509160037 | 9 | 88 | 0.0 | 0.0 | 0.00 | 1.17 | 1.17 | 89 | 1025.7 |